• In Italy
  • List of Countries
  • For 7 days
  • Water Temperature
  • Satellite Maps
  • Weather Map
  • Weather Widgets
  • user-avatar
    Login

    Hourly Weather Megri

    Today, 19 October, Thursday

    Time Temperature Precipitation Wind Pressure Humidity
    00:00 +7°C° 0 mm 2 mps 626 mmHg 64%
    01:00 +7°C° 0 mm 2 mps 625 mmHg 67%
    02:00 +6°C° 0 mm 2 mps 625 mmHg 69%
    03:00 +7°C° 0 mm 1 mps 625 mmHg 67%
    04:00 +7°C° 0 mm 1 mps 625 mmHg 69%
    05:00 +6°C° 0 mm 1 mps 625 mmHg 70%
    06:00 +6°C° 0 mm 1 mps 625 mmHg 72%
    07:00 +8°C° 0 mm 1 mps 626 mmHg 64%
    08:00 +10°C° 0 mm 1 mps 626 mmHg 56%
    09:00 +12°C° 0 mm 1 mps 627 mmHg 48%
    10:00 +13°C° 0 mm 1 mps 627 mmHg 41%
    11:00 +14°C° 0 mm 1 mps 627 mmHg 35%
    12:00 +15°C° 0 mm 1 mps 627 mmHg 28%
    13:00 +16°C° 0 mm 1 mps 627 mmHg 27%
    14:00 +16°C° 0 mm 2 mps 627 mmHg 25%
    15:00 +16°C° 0 mm 2 mps 627 mmHg 24%
    16:00 +15°C° 0 mm 2 mps 626 mmHg 28%
    17:00 +13°C° 0 mm 1 mps 626 mmHg 32%
    18:00 +12°C° 0 mm 1 mps 625 mmHg 36%
    19:00 +11°C° 0 mm 1 mps 625 mmHg 39%
    20:00 +11°C° 0 mm 1 mps 625 mmHg 42%
    21:00 +10°C° 0 mm 1 mps 625 mmHg 45%
    22:00 +10°C° 0 mm 1 mps 624 mmHg 47%
    23:00 +9°C° 0 mm 1 mps 624 mmHg 48%

    Tomorrow, 20 October, Friday

    Time Temperature Precipitation Wind Pressure Humidity
    00:00 +8°C° 0 mm 1 mps 624 mmHg 50%
    01:00 +8°C° 0 mm 1 mps 623 mmHg 49%
    02:00 +8°C° 0 mm 1 mps 623 mmHg 48%
    03:00 +7°C° 0 mm 1 mps 623 mmHg 47%
    04:00 +7°C° 0 mm 1 mps 623 mmHg 46%
    05:00 +6°C° 0 mm 1 mps 622 mmHg 45%
    06:00 +6°C° 0 mm 1 mps 622 mmHg 44%
    07:00 +8°C° 0 mm 1 mps 623 mmHg 38%
    08:00 +10°C° 0 mm 1 mps 624 mmHg 33%
    09:00 +12°C° 0 mm 1 mps 625 mmHg 27%
    10:00 +13°C° 0 mm 1 mps 625 mmHg 25%
    11:00 +14°C° 0 mm 2 mps 625 mmHg 24%
    12:00 +15°C° 0 mm 2 mps 625 mmHg 22%
    13:00 +15°C° 0 mm 2 mps 625 mmHg 22%
    14:00 +16°C° 0 mm 2 mps 625 mmHg 22%
    15:00 +16°C° 0 mm 2 mps 625 mmHg 22%
    16:00 +14°C° 0 mm 2 mps 624 mmHg 25%
    17:00 +13°C° 0 mm 1 mps 624 mmHg 28%
    18:00 +12°C° 0 mm 1 mps 624 mmHg 31%
    19:00 +11°C° 0 mm 1 mps 624 mmHg 33%
    20:00 +10°C° 0 mm 1 mps 624 mmHg 35%
    21:00 +10°C° 0 mm 1 mps 624 mmHg 37%
    22:00 +9°C° 0 mm 1 mps 623 mmHg 39%
    23:00 +9°C° 0 mm 1 mps 623 mmHg 41%

    Day after tomorrow, 21 October, Saturday

    Time Temperature Precipitation Wind Pressure Humidity
    00:00 +7°C° 0 mm 0 mps 623 mmHg 42%
    01:00 +7°C° 0 mm 0 mps 622 mmHg 43%
    02:00 +6°C° 0 mm 0 mps 622 mmHg 43%
    03:00 +6°C° 0 mm 0 mps 622 mmHg 43%
    04:00 +5°C° 0 mm 0 mps 622 mmHg 44%
    05:00 +5°C° 0 mm 0 mps 622 mmHg 44%
    06:00 +5°C° 0 mm 0 mps 621 mmHg 44%
    07:00 +7°C° 0 mm 0 mps 622 mmHg 38%
    08:00 +9°C° 0 mm 0 mps 623 mmHg 32%
    09:00 +11°C° 0 mm 0 mps 624 mmHg 26%
    10:00 +13°C° 0 mm 1 mps 624 mmHg 24%
    11:00 +14°C° 0 mm 1 mps 624 mmHg 22%
    12:00 +15°C° 0 mm 1 mps 624 mmHg 20%
    13:00 +16°C° 0 mm 1 mps 624 mmHg 20%
    14:00 +16°C° 0 mm 2 mps 624 mmHg 19%
    15:00 +16°C° 0 mm 2 mps 623 mmHg 19%
    16:00 +15°C° 0 mm 1 mps 623 mmHg 22%
    17:00 +13°C° 0 mm 1 mps 622 mmHg 25%
    18:00 +12°C° 0 mm 1 mps 622 mmHg 29%
    19:00 +11°C° 0 mm 1 mps 622 mmHg 30%
    20:00 +10°C° 0 mm 1 mps 621 mmHg 32%
    21:00 +9°C° 0 mm 0 mps 621 mmHg 34%
    22:00 +8°C° 0 mm 0 mps 621 mmHg 35%
    23:00 +8°C° 0 mm 0 mps 621 mmHg 36%

    22 October, Sunday

    Time Temperature Precipitation Wind Pressure Humidity
    00:00 +7°C° 0 mm 0 mps 621 mmHg 36%
    01:00 +7°C° 0 mm 0 mps 620 mmHg 36%
    02:00 +6°C° 0 mm 0 mps 620 mmHg 36%
    03:00 +6°C° 0 mm 0 mps 620 mmHg 36%
    04:00 +6°C° 0 mm 0 mps 620 mmHg 37%
    05:00 +5°C° 0 mm 0 mps 620 mmHg 37%
    06:00 +5°C° 0 mm 0 mps 620 mmHg 37%
    07:00 +8°C° 0 mm 1 mps 621 mmHg 32%
    08:00 +10°C° 0 mm 1 mps 622 mmHg 28%
    09:00 +13°C° 0 mm 1 mps 623 mmHg 23%
    10:00 +14°C° 0 mm 1 mps 623 mmHg 22%
    11:00 +15°C° 0 mm 2 mps 623 mmHg 20%
    12:00 +16°C° 0 mm 3 mps 623 mmHg 19%
    13:00 +16°C° 0 mm 3 mps 622 mmHg 18%
    14:00 +16°C° 0 mm 3 mps 622 mmHg 18%
    15:00 +16°C° 0 mm 3 mps 622 mmHg 17%
    16:00 +15°C° 0 mm 2 mps 621 mmHg 20%
    17:00 +13°C° 0 mm 1 mps 621 mmHg 23%
    18:00 +12°C° 0 mm 1 mps 620 mmHg 26%
    19:00 +11°C° 0 mm 1 mps 620 mmHg 26%
    20:00 +10°C° 0 mm 1 mps 620 mmHg 27%
    21:00 +10°C° 0 mm 1 mps 620 mmHg 28%
    22:00 +9°C° 0 mm 1 mps 620 mmHg 27%
    23:00 +9°C° 0 mm 1 mps 620 mmHg 27%

    23 October, Monday

    Time Temperature Precipitation Wind Pressure Humidity
    00:00 +9°C° 0 mm 1 mps 620 mmHg 27%
    01:00 +8°C° 0 mm 1 mps 620 mmHg 27%
    02:00 +8°C° 0 mm 1 mps 620 mmHg 27%
    03:00 +8°C° 0 mm 1 mps 620 mmHg 27%
    04:00 +7°C° 0 mm 1 mps 620 mmHg 28%
    05:00 +7°C° 0 mm 1 mps 620 mmHg 29%
    06:00 +6°C° 0 mm 1 mps 620 mmHg 30%
    07:00 +9°C° 0 mm 1 mps 621 mmHg 28%
    08:00 +11°C° 0 mm 1 mps 622 mmHg 25%
    09:00 +13°C° 0 mm 1 mps 624 mmHg 23%
    10:00 +14°C° 0 mm 1 mps 624 mmHg 22%
    11:00 +15°C° 0 mm 1 mps 624 mmHg 21%
    12:00 +15°C° 0 mm 1 mps 624 mmHg 21%
    13:00 +16°C° 0 mm 1 mps 624 mmHg 21%
    14:00 +16°C° 0 mm 1 mps 624 mmHg 21%
    15:00 +16°C° 0 mm 1 mps 624 mmHg 21%
    16:00 +15°C° 0 mm 1 mps 623 mmHg 24%
    17:00 +13°C° 0 mm 1 mps 623 mmHg 28%
    18:00 +12°C° 0 mm 2 mps 623 mmHg 32%
    19:00 +10°C° 0 mm 2 mps 623 mmHg 36%
    20:00 +9°C° 0 mm 2 mps 623 mmHg 41%
    21:00 +9°C° 0 mm 2 mps 623 mmHg 45%
    22:00 +8°C° 0 mm 2 mps 623 mmHg 49%
    23:00 +8°C° 0 mm 2 mps 622 mmHg 53%

    24 October, Tuesday

    Time Temperature Precipitation Wind Pressure Humidity
    00:00 +7°C° 0 mm 2 mps 622 mmHg 57%
    01:00 +7°C° 0 mm 2 mps 622 mmHg 59%
    02:00 +7°C° 0 mm 2 mps 622 mmHg 62%
    03:00 +7°C° 0 mm 2 mps 622 mmHg 64%
    04:00 +6°C° 0 mm 2 mps 622 mmHg 65%
    05:00 +6°C° 0 mm 2 mps 622 mmHg 66%
    06:00 +6°C° 0 mm 2 mps 622 mmHg 68%
    07:00 +8°C° 0 mm 1 mps 623 mmHg 60%
    08:00 +10°C° 0 mm 1 mps 624 mmHg 53%
    09:00 +12°C° 0 mm 1 mps 625 mmHg 45%
    10:00 +13°C° 0 mm 1 mps 625 mmHg 39%
    11:00 +14°C° 0 mm 1 mps 625 mmHg 33%
    12:00 +16°C° 0 mm 1 mps 625 mmHg 27%
    13:00 +16°C° 0 mm 1 mps 625 mmHg 27%
    14:00 +16°C° 0 mm 1 mps 625 mmHg 26%
    15:00 +18°C° 0 mm 1 mps 625 mmHg 25%
    16:00 +15°C° 0 mm 1 mps 625 mmHg 30%
    17:00 +14°C° 0 mm 1 mps 625 mmHg 36%
    18:00 +13°C° 0 mm 1 mps 625 mmHg 41%
    19:00 +12°C° 0 mm 2 mps 625 mmHg 46%
    20:00 +12°C° 0 mm 2 mps 625 mmHg 50%
    21:00 +10°C° 0 mm 2 mps 625 mmHg 55%
    22:00 +10°C° 0 mm 2 mps 625 mmHg 59%
    23:00 +9°C° 0 mm 2 mps 625 mmHg 63%
    Show more